GW3931 Weather Reports


time (UTC)temp
C
wind
direction
speed
KPH
gust
KPH
rain 1hr
cm
rain 24hr
cm
rain mn
cm
humidity
%
barometer
mb
20260505063420 16 152 0.0 0.0 0.00 0.00 0.00 59 1012.4
20260505062916 17 148 0.0 1.6 0.00 0.00 0.00 58 1012.6
20260505062413 16 150 0.0 0.0 0.00 0.00 0.00 59 1012.6
20260505061910 17 149 0.0 0.0 0.00 0.00 0.00 58 1012.6
20260505061409 17 161 0.0 0.0 0.00 0.00 0.00 58 1012.5
20260505060906 17 152 0.0 1.6 0.00 0.00 0.00 58 1012.8
20260505060402 17 153 0.0 0.0 0.00 0.00 0.00 58 1012.6
20260505055858 17 152 0.0 0.0 0.00 0.00 0.00 58 1012.6
20260505055355 17 149 0.0 0.0 0.00 0.00 0.00 58 1012.7
20260505054852 17 137 0.0 1.6 0.00 0.00 0.00 58 1012.5
20260505054349 17 135 0.0 0.0 0.00 0.00 0.00 60 1012.6
20260505053847 17 153 0.0 0.0 0.00 0.00 0.00 61 1012.7
20260505053344 17 155 0.0 0.0 0.00 0.00 0.00 59 1012.7
20260505052841 17 156 0.0 0.0 0.00 0.00 0.00 58 1012.6
20260505052337 17 156 0.0 1.6 0.00 0.00 0.00 57 1012.8
20260505051835 17 155 0.0 0.0 0.00 0.00 0.00 57 1012.8
20260505051332 17 133 0.0 0.0 0.00 0.00 0.00 58 1012.7
20260505050830 17 151 0.0 0.0 0.00 0.00 0.00 58 1012.8
20260505050328 17 161 0.0 0.0 0.00 0.00 0.00 57 1012.7
20260505041758 18 158 0.0 4.8 0.00 0.00 0.00 52 1013.0
20260505041255 18 157 0.0 1.6 0.00 0.00 0.00 52 1012.7
20260505040752 18 163 0.0 0.0 0.00 0.00 0.00 51 1013.0
20260505040250 18 155 0.0 3.2 0.00 0.00 0.00 51 1012.8
20260505035747 18 161 0.0 0.0 0.00 0.00 0.00 51 1012.6
20260505035242 19 156 0.0 3.2 0.00 0.00 0.00 50 1012.6
20260505034739 19 159 0.0 0.0 0.00 0.00 0.00 50 1012.7
20260505034236 19 160 0.0 0.0 0.00 0.00 0.00 49 1012.5
20260505033733 19 172 1.6 1.6 0.00 0.00 0.00 49 1012.5
20260505033231 19 96 1.6 1.6 0.00 0.00 0.00 49 1012.5
20260505032729 20 164 0.0 3.2 0.00 0.00 0.00 49 1012.6
20260505032224 20 180 1.6 1.6 0.00 0.00 0.00 49 1012.7
20260505031722 19 181 0.0 0.0 0.00 0.00 0.00 49 1012.5
20260505031218 20 154 0.0 0.0 0.00 0.00 0.00 49 1012.5
20260505030715 20 157 0.0 0.0 0.00 0.00 0.00 48 1012.6
20260505030211 20 160 0.0 0.0 0.00 0.00 0.00 48 1012.5
20260505025707 20 149 0.0 0.0 0.00 0.00 0.00 48 1012.6
20260505025206 20 157 0.0 0.0 0.00 0.00 0.00 47 1012.7
20260505024703 20 142 0.0 1.6 0.00 0.00 0.00 47 1012.5
20260505024200 20 158 0.0 0.0 0.00 0.00 0.00 47 1012.6
20260505023657 20 155 0.0 0.0 0.00 0.00 0.00 47 1012.6
20260505023155 20 156 0.0 1.6 0.00 0.00 0.00 46 1012.6
20260505022652 20 104 1.6 3.2 0.00 0.00 0.00 46 1012.6
20260505022149 20 157 0.0 1.6 0.00 0.00 0.00 46 1012.3
20260505021645 20 176 0.0 0.0 0.00 0.00 0.00 47 1012.4
20260505021143 20 149 0.0 3.2 0.00 0.00 0.00 47 1012.4
20260505020638 20 172 1.6 1.6 0.00 0.00 0.00 48 1012.4
20260505020134 20 148 0.0 0.0 0.00 0.00 0.00 48 1012.6
20260505015631 20 158 0.0 0.0 0.00 0.00 0.00 47 1012.5
20260505015128 20 155 0.0 0.0 0.00 0.00 0.00 47 1012.5
20260505014625 20 157 0.0 0.0 0.00 0.00 0.00 46 1012.2
20260505014122 21 152 0.0 0.0 0.00 0.00 0.00 47 1012.3
20260505013619 21 122 0.0 0.0 0.00 0.00 0.00 46 1012.1
20260505013116 21 145 1.6 3.2 0.00 0.00 0.00 45 1012.1
20260505012615 21 122 0.0 1.6 0.00 0.00 0.00 45 1012.1
20260505012111 21 122 0.0 1.6 0.00 0.00 0.00 45 1012.2
20260505011607 21 132 0.0 0.0 0.00 0.00 0.00 45 1011.9
20260505011104 21 154 0.0 3.2 0.00 0.00 0.00 45 1011.7
20260505010559 21 149 0.0 4.8 0.00 0.00 0.00 45 1011.8
20260505010056 21 141 0.0 0.0 0.00 0.00 0.00 45 1012.1
20260505005552 21 115 0.0 1.6 0.00 0.00 0.00 45 1011.8
20260505005050 22 154 0.0 0.0 0.00 0.00 0.00 44 1011.7
20260505004546 22 147 0.0 3.2 0.00 0.00 0.00 45 1011.9
20260505004043 22 123 0.0 0.0 0.00 0.00 0.00 44 1011.6
20260505003540 22 144 0.0 1.6 0.00 0.00 0.00 44 1011.7
20260505003038 22 148 0.0 1.6 0.00 0.00 0.00 43 1011.7
20260505002538 22 133 0.0 0.0 0.00 0.00 0.00 42 1011.6
20260505002038 22 155 0.0 4.8 0.00 0.00 0.00 41 1011.7
20260505001534 23 133 0.0 1.6 0.00 0.00 0.00 41 1011.5
20260505001031 23 200 1.6 3.2 0.00 0.00 0.00 41 1011.6
20260505000529 23 315 1.6 3.2 0.00 0.00 0.00 40 1011.7
20260505000026 23 160 0.0 0.0 0.00 0.00 0.00 40 1011.6
20260504235523 23 173 3.2 4.8 0.00 0.00 0.00 39 1011.5
20260504235019 23 355 0.0 3.2 0.00 0.00 0.00 39 1011.4
20260504234517 23 232 1.6 4.8 0.00 0.00 0.00 39 1011.3
20260504234014 23 159 1.6 1.6 0.00 0.00 0.00 39 1011.5
20260504233509 23 147 1.6 4.8 0.00 0.00 0.00 38 1011.5
20260504233006 23 103 3.2 4.8 0.00 0.00 0.00 38 1011.3
20260504232503 23 224 3.2 6.4 0.00 0.00 0.00 37 1011.6
20260504232001 23 159 0.0 4.8 0.00 0.00 0.00 38 1011.3
20260504231456 23 265 3.2 4.8 0.00 0.00 0.00 37 1011.2
20260504230953 24 143 1.6 6.4 0.00 0.00 0.00 36 1011.2
20260504230450 24 150 1.6 12.9 0.00 0.00 0.00 36 1011.5
20260504225949 24 299 3.2 9.7 0.00 0.00 0.00 36 1011.2
20260504225445 24 294 1.6 6.4 0.00 0.00 0.00 36 1011.2
20260504224942 24 56 1.6 3.2 0.00 0.00 0.00 36 1011.1
20260504224438 24 139 1.6 4.8 0.00 0.00 0.00 36 1011.3
20260504223936 24 252 1.6 6.4 0.00 0.00 0.00 35 1011.3
20260504223432 25 283 3.2 6.4 0.00 0.00 0.00 35 1011.4
20260504222927 25 206 4.8 9.7 0.00 0.00 0.00 34 1011.3
20260504222425 25 217 0.0 9.7 0.00 0.00 0.00 34 1011.0
20260504221923 25 226 1.6 4.8 0.00 0.00 0.00 34 1011.4
20260504221419 25 114 0.0 9.7 0.00 0.00 0.00 34 1011.4
20260504220917 25 261 4.8 6.4 0.00 0.00 0.00 33 1011.2
20260504220413 25 240 4.8 6.4 0.00 0.00 0.00 33 1011.2
20260504215910 25 96 1.6 6.4 0.00 0.00 0.00 33 1011.2
20260504215407 25 30 4.8 16.1 0.00 0.00 0.00 32 1011.2
20260504214903 25 130 1.6 11.3 0.00 0.00 0.00 32 1011.2
20260504214400 25 114 3.2 11.3 0.00 0.00 0.00 32 1011.3
20260504213857 25 286 3.2 12.9 0.00 0.00 0.00 33 1011.5
20260504213352 25 82 3.2 24.1 0.00 0.00 0.00 33 1011.4
20260504212850 26 66 3.2 9.7 0.00 0.00 0.00 32 1011.3
20260504212346 25 16 3.2 14.5 0.00 0.00 0.00 32 1011.3
20260504211844 26 337 9.7 12.9 0.00 0.00 0.00 31 1011.5
20260504211340 25 44 1.6 4.8 0.00 0.00 0.00 31 1011.4
20260504210838 26 72 1.6 6.4 0.00 0.00 0.00 31 1011.2
20260504210334 26 177 3.2 12.9 0.00 0.00 0.00 31 1011.3
20260504205831 26 98 4.8 9.7 0.00 0.00 0.00 31 1011.2
20260504205329 26 142 3.2 12.9 0.00 0.00 0.00 31 1011.4
20260504204827 26 132 1.6 4.8 0.00 0.00 0.00 31 1011.4
20260504204326 26 62 3.2 9.7 0.00 0.00 0.00 31 1011.2
20260504203824 26 126 0.0 4.8 0.00 0.00 0.00 31 1011.3
20260504203321 26 205 1.6 4.8 0.00 0.00 0.00 30 1011.4
20260504202816 25 290 1.6 12.9 0.00 0.00 0.00 31 1011.3
20260504202314 26 87 3.2 16.1 0.00 0.00 0.00 31 1011.4
20260504201810 25 333 4.8 9.7 0.00 0.00 0.00 30 1011.5
20260504201308 26 20 1.6 9.7 0.00 0.00 0.00 30 1011.7
20260504200806 26 242 6.4 9.7 0.00 0.00 0.00 30 1011.7
20260504200302 26 350 3.2 9.7 0.00 0.00 0.00 30 1011.7
20260504195758 25 90 1.6 6.4 0.00 0.00 0.00 31 1011.9
20260504195254 25 310 6.4 12.9 0.00 0.00 0.00 31 1011.7
20260504194751 25 172 1.6 9.7 0.00 0.00 0.00 31 1011.8
20260504194247 25 84 1.6 9.7 0.00 0.00 0.00 31 1011.8
20260504193743 25 177 3.2 4.8 0.00 0.00 0.00 32 1012.1
20260504193241 25 89 3.2 16.1 0.00 0.00 0.00 31 1012.2
20260504192739 25 182 4.8 9.7 0.00 0.00 0.00 31 1012.4
20260504192237 25 29 4.8 12.9 0.00 0.00 0.00 31 1012.4
20260504191736 25 225 0.0 3.2 0.00 0.00 0.00 32 1012.4
20260504191232 25 98 3.2 4.8 0.00 0.00 0.00 32 1012.7
20260504190727 25 266 3.2 6.4 0.00 0.00 0.00 31 1012.7
20260504190224 25 104 1.6 4.8 0.00 0.00 0.00 32 1013.0
20260504185720 25 190 3.2 6.4 0.00 0.00 0.00 31 1012.6
20260504185218 25 72 3.2 4.8 0.00 0.00 0.00 31 1012.8
20260504184713 24 176 4.8 6.4 0.00 0.00 0.00 33 1013.0
20260504184209 25 86 4.8 11.3 0.00 0.00 0.00 31 1013.0
20260504183705 24 98 3.2 6.4 0.00 0.00 0.00 32 1013.4
20260504183203 24 261 1.6 12.9 0.00 0.00 0.00 32 1013.4
20260504182701 24 238 4.8 11.3 0.00 0.00 0.00 32 1013.4
20260504182158 24 210 1.6 6.4 0.00 0.00 0.00 33 1013.4
20260504181655 24 225 8.0 9.7 0.00 0.00 0.00 32 1013.5
20260504181153 23 76 9.7 14.5 0.00 0.00 0.00 33 1013.5
20260504180652 23 296 6.4 11.3 0.00 0.00 0.00 33 1013.7
20260504180150 23 162 6.4 12.9 0.00 0.00 0.00 33 1013.6
20260504175647 23 148 0.0 3.2 0.00 0.00 0.00 34 1013.8
20260504175143 24 266 4.8 12.9 0.00 0.00 0.00 33 1013.8
20260504174642 23 196 3.2 6.4 0.00 0.00 0.00 33 1014.0
20260504174138 23 201 1.6 3.2 0.00 0.00 0.00 34 1013.9
20260504173635 23 156 3.2 11.3 0.00 0.00 0.00 35 1014.1
20260504173132 23 204 3.2 4.8 0.00 0.00 0.00 34 1014.1
20260504172629 23 165 3.2 4.8 0.00 0.00 0.00 36 1014.2
20260504172125 23 91 3.2 6.4 0.00 0.00 0.00 34 1014.2
20260504171621 22 96 3.2 11.3 0.00 0.00 0.00 35 1014.4
20260504171119 22 66 1.6 12.9 0.00 0.00 0.00 36 1014.6
20260504170615 22 156 3.2 6.4 0.00 0.00 0.00 35 1014.4
20260504170113 22 229 3.2 6.4 0.00 0.00 0.00 35 1014.4
20260504150958 21 101 0.0 1.6 0.00 0.00 0.00 38 1015.6
20260504150455 21 227 4.8 6.4 0.00 0.00 0.00 39 1015.5
20260504140916 18 204 1.6 1.6 0.00 0.00 0.00 43 1016.1
20260504140412 18 110 0.0 0.0 0.00 0.00 0.00 43 1015.9
20260504130337 15 116 1.6 4.8 0.00 0.00 0.00 51 1016.7
20260504120300 12 272 3.2 3.2 0.00 0.00 0.00 57 1016.8
20260504110224 11 139 0.0 1.6 0.00 0.00 0.00 60 1017.1
20260504100148 11 153 0.0 0.0 0.00 0.00 0.00 60 1016.9
20260504090110 11 4 3.2 3.2 0.00 0.00 0.00 57 1016.9
20260504081541 11 152 0.0 0.0 0.00 0.00 0.00 61 1017.2
20260504081036 11 135 0.0 1.6 0.00 0.00 0.00 61 1017.2
20260504080533 11 156 0.0 1.6 0.00 0.00 0.00 62 1017.1